Location: Newark
(51.0500°N, 12.4500°E)
Time: 15:57:51
(UTC+00:00)

Transit 4A - All Passes

Search period start: 19 February 2020 00:00
Search period end: 29 February 2020 00:00
Orbit: 872 x 973 km, 66.8° (Epoch: 18 February)

Date Brightness Start Highest point End Pass type
(mag) Time Alt. Az. Time Alt. Az. Time Alt. Az.
19 Feb - 01:09:08 10° SW 01:14:59 62° NW 01:20:48 10° NE visible
19 Feb - 02:57:54 10° WNW 03:02:29 23° NNW 03:07:04 10° NNE visible
19 Feb - 04:47:15 10° NW 04:51:01 17° N 04:54:47 10° NE visible
19 Feb - 06:34:18 10° NNW 06:39:20 29° NNE 06:44:24 10° E daylight
19 Feb - 08:20:32 10° NW 08:26:24 89° WSW 08:32:20 10° SE daylight
19 Feb - 10:08:01 10° WNW 10:12:00 19° WSW 10:16:01 10° SSW daylight
19 Feb - 23:32:32 10° S 23:38:06 44° ESE 23:43:37 10° NE visible
20 Feb - 01:18:46 10° WSW 01:24:28 47° NW 01:30:06 10° NNE visible
20 Feb - 03:07:59 10° WNW 03:12:15 20° NNW 03:16:30 10° NNE visible
20 Feb - 04:56:56 10° NNW 05:00:51 18° N 05:04:45 10° NE visible
20 Feb - 06:43:37 10° NNW 06:48:57 35° NE 06:54:19 10° ESE daylight
20 Feb - 08:29:55 10° NW 08:35:42 66° WSW 08:41:34 10° SSE daylight
20 Feb - 10:18:28 10° WNW 10:20:59 13° WSW 10:23:31 10° SW daylight
20 Feb - 22:00:14 10° ESE 22:02:08 12° E 22:04:01 10° E night (unlit)
20 Feb - 23:41:29 10° SSW 23:47:19 61° ESE 23:53:04 10° NE visible
21 Feb - 01:28:33 10° WSW 01:33:59 37° NW 01:39:25 10° NNE visible
21 Feb - 03:18:03 10° NW 03:22:02 18° NNW 03:26:01 10° NNE visible
21 Feb - 05:06:28 10° NNW 05:10:39 20° NNE 05:14:50 10° ENE visible
21 Feb - 06:52:54 10° NNW 06:58:31 44° NE 07:04:08 10° ESE daylight
21 Feb - 08:39:22 10° NW 08:44:57 47° WSW 08:50:35 10° S daylight
21 Feb - 22:07:21 10° SE 22:11:05 17° ESE 22:14:47 10° ENE night (unlit)
21 Feb - 23:50:41 10° SSW 23:56:36 83° SE 00:02:28 10° NE visible
22 Feb - 01:38:27 10° W 01:43:35 30° NNW 01:48:43 10° NNE visible
22 Feb - 03:28:04 10° NW 03:31:52 17° N 03:35:39 10° NE visible
22 Feb - 05:15:56 10° NNW 05:20:25 22° NNE 05:24:54 10° ENE visible
22 Feb - 07:02:13 10° NNW 07:07:59 58° NE 07:13:49 10° SE daylight
22 Feb - 08:48:55 10° NW 08:54:06 34° WSW 08:59:21 10° S daylight
22 Feb - 22:15:26 10° SSE 22:20:07 25° ESE 22:24:46 10° ENE night (unlit)
23 Feb - 00:00:03 10° SW 00:05:57 74° NW 00:11:49 10° NE visible
23 Feb - 01:48:26 10° W 01:53:15 25° NNW 01:58:03 10° NNE visible
23 Feb - 03:37:58 10° NW 03:41:42 17° N 03:45:26 10° NE visible
23 Feb - 05:25:18 10° NNW 05:30:08 26° NNE 05:34:59 10° E visible
23 Feb - 07:11:32 10° NW 07:17:24 77° NE 07:23:20 10° SE daylight
23 Feb - 08:58:37 10° WNW 09:03:12 24° WSW 09:07:49 10° SSW daylight
23 Feb - 22:23:56 10° S 22:29:13 35° ESE 22:34:28 10° NE night (unlit)
24 Feb - 00:09:34 10° SW 00:15:22 56° NW 00:21:08 10° NNE visible
24 Feb - 01:58:31 10° WNW 02:02:58 22° NNW 02:07:26 10° NNE visible
24 Feb - 03:47:44 10° NW 03:51:32 17° N 03:55:21 10° NE visible
24 Feb - 05:34:38 10° NNW 05:39:47 31° NNE 05:44:58 10° E visible
24 Feb - 07:20:53 10° NW 07:26:45 80° SW 07:32:40 10° SSE daylight
24 Feb - 09:08:39 10° WNW 09:12:14 17° WSW 09:15:49 10° SW daylight
24 Feb - 22:32:43 10° S 22:38:24 49° ESE 22:44:00 10° NE visible
25 Feb - 00:19:15 10° WSW 00:24:51 43° NW 00:30:26 10° NNE visible
25 Feb - 02:08:36 10° WNW 02:12:45 19° NNW 02:16:53 10° NNE visible
25 Feb - 03:57:21 10° NNW 04:01:22 18° NNE 04:05:22 10° NE visible
25 Feb - 05:43:57 10° NNW 05:49:23 38° NE 05:54:52 10° ESE daylight
25 Feb - 07:30:17 10° NW 07:36:02 59° WSW 07:41:49 10° SSE daylight
25 Feb - 09:19:38 10° W 09:21:11 11° W 09:22:44 10° WSW daylight
25 Feb - 20:59:35 10° SE 21:02:20 14° ESE 21:05:04 10° ENE night (unlit)
25 Feb - 22:41:46 10° SSW 22:47:38 68° ESE 22:53:26 10° NE visible
26 Feb - 00:29:05 10° W 00:34:25 34° NW 00:39:44 10° NNE visible
26 Feb - 02:18:39 10° NW 02:22:33 18° N 02:26:27 10° NNE visible
26 Feb - 04:06:53 10° NNW 04:11:09 20° NNE 04:15:27 10° ENE visible
26 Feb - 05:53:14 10° NNW 05:58:55 49° NE 06:04:38 10° ESE daylight
26 Feb - 07:39:46 10° NW 07:45:14 42° WSW 07:50:46 10° S daylight
26 Feb - 21:07:11 10° SSE 21:11:19 20° ESE 21:15:25 10° ENE night (unlit)
26 Feb - 22:51:01 10° SW 22:56:56 89° NW 23:02:49 10° NE visible
27 Feb - 00:39:01 10° W 00:44:02 28° NNW 00:49:03 10° NNE visible
27 Feb - 02:28:38 10° NW 02:32:23 17° N 02:36:09 10° NE visible
27 Feb - 04:16:17 10° NNW 04:20:54 23° NNE 04:25:32 10° ENE visible
27 Feb - 06:02:33 10° NW 06:08:22 64° NE 06:14:15 10° SE daylight
27 Feb - 07:49:22 10° NW 07:54:22 30° WSW 07:59:26 10° S daylight
27 Feb - 21:15:26 10° SSE 21:20:22 28° ESE 21:25:16 10° NE night (unlit)
27 Feb - 23:00:26 10° SW 23:06:19 67° NW 23:12:09 10° NE visible
28 Feb - 00:49:03 10° WNW 00:53:44 24° NNW 00:58:24 10° NNE visible
28 Feb - 02:38:29 10° NW 02:42:14 17° N 02:45:58 10° NE visible
28 Feb - 04:25:39 10° NNW 04:30:36 27° NNE 04:35:34 10° E visible
28 Feb - 06:11:53 10° NW 06:17:46 85° NE 06:23:42 10° SE daylight
28 Feb - 07:59:10 10° WNW 08:03:26 21° WSW 08:07:46 10° SSW daylight
28 Feb - 21:24:04 10° S 21:29:30 40° ESE 21:34:53 10° NE night (unlit)
28 Feb - 23:10:02 10° WSW 23:15:45 51° NW 23:21:27 10° NNE visible
